Flag for Sweden Weather past 2 weeks in Malmö, Sweden

Now
57 °F

Sunny.


Feels Like: 57 °F
Forecast: 53 / 73 °F
Wind: 3 mph from Northwest

Location: Malmo / Sturup

Current Time: Jun 30, 2015 at 10:52:57 PM

Latest Report: Jun 30, 2015 at 10:20 PM


Visibility: 10 mi

Pressure: 30.18 "Hg

Humidity: 77%

Dew point: 50 °F

Location of MalmöLocation

Historic Weather in Malmö — Graph

°F

Malmö temperature yesterday

Maximum temperature yesterday: 70 °F (at 3:50 PM)
Minimum temperature yesterday: 52 °F (at 12:20 AM)
Average temperature yesterday: 61 °F

Past Weeks' High & Low Weather Summary

 TemperatureHumidityPressure
High70 °F (Jun 29, 3:50 PM)100% (Jun 17, 9:50 PM)30.18 "Hg (Jun 17, 9:50 PM)
Low43 °F (Jun 22, 2:20 AM)52% (Jun 26, 1:50 PM)29.62 "Hg (Jun 23, 12:50 AM)
Average56 °F82%29.94 "Hg
* Reported Jun 15 9:20 PM — Jun 30 9:20 PM, Malmö, Weather by CustomWeather, © 2015

Note: Actual official high and low records may vary slightly from our data, if they occured in-between our weather recording intervals... More about our weather records

Advertising

Malmö weather history for previous 24 hours

 ConditionsComfort  
Time TempWeatherWind HumidityBarometerVisibility
9:20 PM
Tue, Jun 30
61 °FSunny.8 mph72%30.18 "Hg10 mi
8:50 PM63 °FSunny.10 mph64%30.18 "Hg10 mi
8:20 PM64 °FSunny.13 mph60%30.18 "Hg10 mi
7:50 PM64 °FSunny.13 mph56%30.18 "Hg10 mi
6:50 PM66 °FSunny.16 mph56%30.15 "Hg10 mi
6:20 PM66 °FSunny.16 mph56%30.15 "Hg10 mi
5:50 PM66 °FSunny.16 mph56%30.15 "Hg10 mi
4:50 PM68 °FPassing clouds.15 mph53%30.15 "HgN/A
4:20 PM68 °FPassing clouds.14 mph53%30.15 "HgN/A
3:50 PM68 °FPassing clouds.15 mph53%30.15 "HgN/A
2:50 PM68 °FScattered clouds.14 mph56%30.15 "HgN/A
2:20 PM68 °FScattered clouds.14 mph56%30.15 "HgN/A
1:50 PM66 °FScattered clouds.14 mph60%30.15 "HgN/A
1:20 PM64 °FScattered clouds.14 mph64%30.15 "HgN/A
12:50 PM64 °FScattered clouds.12 mph60%30.15 "HgN/A
12:20 PM64 °FScattered clouds.14 mph60%30.15 "HgN/A
11:50 AM64 °FScattered clouds.12 mph60%30.15 "HgN/A
11:20 AM64 °FScattered clouds.13 mph68%30.15 "HgN/A
10:50 AM64 °FScattered clouds.12 mph64%30.15 "HgN/A
10:20 AM63 °FPassing clouds.13 mph68%30.15 "HgN/A
9:50 AM63 °FPassing clouds.12 mph68%30.15 "HgN/A
9:20 AM61 °FScattered clouds.12 mph72%30.15 "HgN/A
8:50 AM61 °FPartly sunny.10 mph72%30.12 "HgN/A
8:20 AM61 °FSunny.10 mph72%30.12 "Hg10 mi
7:50 AM59 °FSunny.10 mph82%30.12 "Hg10 mi
7:20 AM57 °FSunny.7 mph88%30.12 "Hg10 mi
6:50 AM57 °FSunny.7 mph88%30.12 "Hg10 mi
6:20 AM55 °FSunny.5 mph94%30.12 "Hg10 mi
5:50 AM54 °FSunny.5 mph94%30.12 "Hg10 mi
5:20 AM54 °FClear.5 mph94%30.12 "Hg10 mi
4:50 AM54 °FClear.6 mph94%30.12 "Hg10 mi
4:20 AM55 °FClear.7 mph94%30.09 "Hg10 mi
3:50 AM55 °FClear.8 mph94%30.09 "Hg10 mi
3:20 AM55 °FClear.8 mph94%30.09 "Hg10 mi
2:50 AM55 °FClear.7 mph94%30.09 "Hg10 mi
2:20 AM57 °FClear.8 mph88%30.09 "Hg10 mi
1:50 AM57 °FClear.7 mph94%30.09 "Hg10 mi
1:20 AM59 °FClear.7 mph88%30.09 "Hg10 mi
12:50 AM59 °FClear.6 mph88%30.09 "Hg10 mi
12:20 AM59 °FClear.7 mph82%30.09 "Hg10 mi
11:20 PM
Mon, Jun 29
59 °FClear.6 mph82%30.09 "Hg10 mi
10:50 PM61 °FSunny.6 mph83%30.09 "Hg10 mi
10:20 PM63 °FPartly sunny.9 mph77%30.09 "HgN/A
Weather by CustomWeather, © 2015

See weather overviewHow to use our weather pages